Regional Weather Roundup
Issued by NWS

Home | Current Version | Previous Version | Text Only | Print | Product List | Glossary On
Versions: 1 2 3 4 5 6 7 8 9 10 11 12 13 14 15 16 17 18 19 20 21 22 23 24 25 26 27 28 29 30 31 32 33 34 35 36 37 38 39 40 41 42 43 44 45 46 47 48 49 50
000
ASUS42 KFFC 251903
RWRGA
WEATHER ROUNDUP FOR GEORGIA
NATIONAL WEATHER SERVICE PEACHTREE CITY GA
300 PM EDT SAT APR 25 2015

NOTE: "FAIR" INDICATES FEW OR NO CLOUDS BELOW 12,000 FEET WITH NO
SIGNIFICANT WEATHER AND/OR OBSTRUCTIONS TO VISIBILITY.

* = USE WITH CAUTION. THE STATIONS MARKED WITH AN ASTERISK MAY NOT
REPORT WEATHER SUCH AS PRECIPITATION, FOG, OR THUNDER AND ARE NOT
QUALITY CONTROLLED BY NWS.

THE REMARK "TC" DENOTES TEMPERATURE READING IN DEGREES CELSIUS.

GAZ001>058-252000-
NORTH GEORGIA

CITY           SKY/WX    TMP DP  RH WIND       PRES   REMARKS
ATLANTA        CLOUDY    75  63  66 W9        29.74S
ATHENS         PTSUNNY   71  63  75 VRB7      29.74F
CHAMBLEE       CLOUDY    74  65  73 SW8       29.73F
PEACHTREE CITY CLOUDY    77  66  68 W6        29.75R
ROME           CLOUDY    74  64  71 SW8       29.71S
WEST ATLANTA   CLOUDY    74  64  71 W7        29.73F
GAINESVILLE    CLOUDY    69  61  75 W10       29.76F
CARTERSVILLE   CLOUDY    76  64  66 VRB3      29.72F


CITY           SKY/WX    TMP DP  RH WIND       PRES   REMARKS
DALTON*        MOSUNNY   72  63  73 SW6       29.71F
LAWRENCEVILLE* PTSUNNY   72  61  68 SW12      29.74F
MARIETTA       CLOUDY    75  66  74 SW8       29.73F
KENNESAW*      PTSUNNY   73  64  73 SW12      29.74F
BLAIRSVILLE*     N/A     71  37  28 W8        29.74F
$$

GAZ059>098-102>109-252000-
CENTRAL GEORGIA

CITY           SKY/WX    TMP DP  RH WIND       PRES   REMARKS
AUGUSTA-BUSH   CLOUDY    75  67  76 SW10      29.71F
AUGUSTA-DANIEL CLOUDY    75  66  73 S6        29.72F
COLUMBUS       PTSUNNY   80  66  62 W8        29.75R
MACON          PTSUNNY   78  69  73 SW10G16   29.75S
ROBINS AFB     CLOUDY    80  70  70 W12       29.74F


CITY           SKY/WX    TMP DP  RH WIND       PRES   REMARKS
LAGRANGE*      CLOUDY    81  72  74 W5        29.76S
SYLVANIA*      CLOUDY    74  69  83 SW5       29.76S
MILLEDGEVILLE* CLOUDY    77  72  83 CALM      29.74R
$$

GAZ099>101-110>166-252000-
SOUTH GEORGIA

CITY           SKY/WX    TMP DP  RH WIND       PRES   REMARKS
SAVANNAH       CLOUDY    76  68  76 S10       29.77F
VALDOSTA       MOSUNNY   81  73  76 VRB6      29.81F
ALMA           MOSUNNY   83  69  62 SW16G25   29.76F
ST SIMONS      CLOUDY    77  69  76 SW15G25   29.79F
FT STEWART     CLOUDY    75  70  83 S8        29.74F
ALBANY         CLOUDY    82  71  69 SW16G24   29.78F
HUNTER AFB     CLOUDY    75  71  86 SW10      29.75F
MOODY AFB      PTSUNNY   83  71  66 SW15      29.79F
BRUNSWICK      CLOUDY    81  70  69 SW18G26   29.79F


CITY           SKY/WX    TMP DP  RH WIND       PRES   REMARKS
BAINBRIDGE*    MOSUNNY   86  77  74 SW15      29.78F HX  97
MOULTRIE*      PTSUNNY   81  73  78 SW14G24   29.80F
VIDALIA*       CLOUDY    77  70  78 SW13      29.75F
WAYCROSS*      MOSUNNY   86  74  68 W15G22    29.78F HX  93
DOUGLAS*       MOSUNNY   86  68  54 SW18G29   29.78F
$$


USA.gov is the U.S. government's official web portal to all federal, state and local government web resources and services.